Location: Arcizac
(43.0933°N, 0.0112°E)
Time: 04:34:15
(UTC+00:00)

IRIDIUM 104 - Pass Details

Date: 14 December 2019
Orbit: 776 x 779 km, 86.4° (Epoch: 23 January)

Event Time Altitude Azimuth Distance (km) Brightness Sun altitude
Rises 18:10:49 0° 166° (SSE) 3,248 7.6 -18.5°
Reaches altitude 10° 18:13:13 10° 161° (SSE) 2,325 6.7 -18.9°
Maximum altitude 18:18:13 49° 87° (E) 998 4.4 -19.8°
Enters shadow 18:20:58 25° 25° (NNE) 1,532 5.5 -20.3°
